EW3811 Weather Reports


time (UTC)temp
F
wind
direction
speed
knots
gust
knots
rain 1hr
in
rain 24hr
in
rain mn
in
humidity
%
barometer
mb
20260507171526 50 74 1.7 8.7 0.00 0.02 0.01 53 1007.1
20260507170025 49 184 0.0 8.7 0.00 0.02 0.01 57 1007.2
20260507164523 48 305 5.2 16.5 0.00 0.02 0.01 60 1007.5
20260507163020 46 275 0.9 5.2 0.00 0.02 0.01 60 1008.0
20260507161521 45 186 0.0 4.3 0.00 0.02 0.01 65 1008.1
20260507160021 46 113 0.0 7.0 0.00 0.02 0.01 71 1008.2
20260507154529 48 99 1.7 7.0 0.00 0.02 0.01 67 1008.0
20260507153029 47 105 0.0 2.6 0.00 0.02 0.01 70 1007.8
20260507151513 47 352 0.9 6.1 0.00 0.02 0.01 69 1008.1
20260507150016 48 50 0.9 6.1 0.00 0.02 0.01 66 1008.1
20260507144513 48 67 2.6 6.1 0.00 0.02 0.01 64 1007.9
20260507143021 49 93 0.9 8.7 0.00 0.02 0.01 61 1007.7
20260507141510 51 129 0.0 5.2 0.00 0.02 0.01 57 1007.7
20260507140011 50 267 1.7 8.7 0.00 0.02 0.01 58 1007.6
20260507134508 49 32 3.5 9.6 0.00 0.02 0.01 59 1007.6
20260507133006 49 64 0.9 5.2 0.00 0.02 0.01 60 1007.6
20260507131510 49 112 3.5 12.2 0.00 0.02 0.01 58 1008.0
20260507130012 50 242 0.0 5.2 0.00 0.02 0.01 60 1007.8
20260507124503 49 24 0.0 4.3 0.00 0.02 0.01 63 1007.7
20260507123100 49 73 0.0 2.6 0.00 0.02 0.01 64 1007.8
20260507121557 47 314 0.0 0.0 0.00 0.02 0.01 71 1008.1
20260507120055 46 164 0.0 4.3 0.00 0.02 0.01 78 1008.2
20260507114558 46 212 0.0 0.9 0.00 0.02 0.01 80 1007.8
20260507113053 46 108 0.0 0.0 0.00 0.02 0.01 78 1007.8
20260507111551 44 96 0.0 0.9 0.00 0.02 0.01 82 1008.1
20260507110049 42 259 0.0 0.0 0.00 0.02 0.01 87 1008.2
20260507104549 40 33 0.0 0.0 0.00 0.02 0.01 92 1008.0
20260507103048 38 359 0.0 0.0 0.00 0.02 0.01 93 1008.0
20260507101552 38 337 0.0 0.0 0.00 0.02 0.01 93 1008.0
20260507100047 37 335 0.0 0.9 0.00 0.02 0.01 95 1007.7
20260507094543 37 25 0.0 0.0 0.00 0.02 0.01 95 1007.6
20260507093046 38 303 0.0 0.0 0.00 0.02 0.01 95 1007.7
20260507091539 38 35 0.0 0.0 0.00 0.02 0.01 94 1007.7
20260507090037 39 26 0.0 0.0 0.00 0.02 0.01 93 1007.6
20260507084536 39 27 0.0 0.0 0.00 0.02 0.01 93 1007.6
20260507083034 39 225 0.0 3.5 0.00 0.02 0.01 92 1007.8
20260507081532 40 162 0.0 0.0 0.00 0.02 0.01 86 1007.2
20260507080037 40 308 0.0 0.0 0.00 0.02 0.01 92 1006.8
20260507074528 40 308 0.0 0.9 0.00 0.02 0.01 89 1006.7
20260507073025 40 337 0.0 0.9 0.00 0.02 0.01 90 1006.8
20260507071555 41 344 0.0 0.0 0.00 0.02 0.01 91 1006.9
20260507070022 40 319 0.0 0.0 0.01 0.02 0.01 91 1006.7
20260507064522 40 296 0.0 0.0 0.01 0.02 0.01 90 1006.8
20260507063018 40 268 0.0 0.9 0.01 0.02 0.01 89 1006.6
20260507061517 41 271 0.0 0.9 0.01 0.02 0.01 89 1006.5
20260507060013 42 110 0.0 1.7 0.00 0.01 0.00 90 1006.3
20260507054509 43 300 0.0 3.5 0.00 0.01 0.00 95 1005.9
20260507053012 44 110 0.0 0.9 0.00 0.01 0.00 95 1006.0
20260507051506 44 68 0.0 0.0 0.00 0.01 0.00 94 1005.7
20260507050006 44 75 0.0 0.0 0.00 0.01 0.00 95 1005.6
20260507044503 45 26 0.0 0.0 0.00 0.01 0.00 94 1005.3
20260507043100 45 272 0.0 0.0 0.00 0.01 0.00 94 1005.7
20260507041558 46 191 0.0 3.5 0.00 0.01 0.00 93 1006.1
20260507040054 46 266 0.0 1.7 0.00 0.01 0.01 96 1005.8
20260507034554 46 302 0.9 4.3 0.00 0.01 0.01 97 1005.8
20260507033052 46 301 0.0 0.9 0.00 0.01 0.01 97 1005.8
20260507031553 47 104 0.0 0.9 0.00 0.01 0.01 97 1005.6
20260507030047 48 121 0.0 0.0 0.00 0.01 0.01 97 1005.3
20260507024546 48 143 0.0 0.0 0.00 0.01 0.01 97 1005.6
20260507023044 48 138 0.0 0.0 0.01 0.01 0.01 97 1005.5
20260507021545 49 289 0.0 0.0 0.01 0.01 0.01 97 1005.4
20260507020042 49 287 0.0 0.0 0.01 0.01 0.01 97 1005.3
20260507014549 49 287 0.0 0.0 0.01 0.01 0.01 97 1005.5
20260507013036 50 235 0.0 0.0 0.00 0.00 0.00 97 1005.5
20260507011538 51 212 0.0 0.0 0.00 0.00 0.00 97 1005.5
20260507010036 51 114 0.0 0.0 0.00 0.01 0.00 97 1005.3
20260507004537 51 359 0.0 0.9 0.00 0.01 0.00 97 1005.2
20260507003028 52 290 0.0 0.9 0.00 0.01 0.00 97 1005.1
20260507001528 53 185 0.0 0.0 0.00 0.01 0.00 97 1004.9
20260507000028 54 239 0.0 1.7 0.00 0.01 0.00 97 1004.7
20260506234527 54 159 0.0 0.0 0.00 0.01 0.00 97 1004.7
20260506233027 54 160 0.0 0.0 0.00 0.01 0.00 97 1004.5
20260506231526 55 160 0.0 0.0 0.00 0.01 0.00 97 1004.6
20260506230025 55 285 0.0 1.7 0.00 0.01 0.00 97 1004.6
20260506224524 55 214 0.0 6.1 0.00 0.01 0.00 97 1004.3
20260506223022 55 243 0.9 4.3 0.00 0.01 0.00 97 1004.4
20260506221520 55 219 0.0 4.3 0.00 0.01 0.00 97 1004.5
20260506220031 55 202 0.0 5.2 0.00 0.03 0.00 97 1004.7
20260506214516 55 207 0.0 3.5 0.00 0.03 0.00 97 1005.0
20260506213014 55 280 0.9 4.3 0.00 0.03 0.00 97 1005.1
20260506211513 55 207 0.0 6.1 0.00 0.03 0.00 97 1005.1
20260506210015 55 240 0.9 3.5 0.00 0.03 0.00 97 1005.3
20260506204511 55 268 0.0 2.6 0.00 0.03 0.00 97 1005.4
20260506203019 55 284 0.0 4.3 0.00 0.03 0.00 97 1005.4
20260506201509 55 229 0.0 6.1 0.00 0.03 0.00 97 1005.4
20260506200008 55 252 0.9 5.2 0.00 0.03 0.00 97 1005.5
20260506194505 55 284 0.0 2.6 0.00 0.03 0.00 97 1005.8
20260506193004 55 239 0.0 4.3 0.00 0.03 0.00 97 1005.9
20260506191503 55 267 0.0 3.5 0.00 0.03 0.00 97 1005.9
20260506190004 55 270 0.9 7.0 0.00 0.03 0.00 96 1005.9
20260506184502 55 238 0.0 0.9 0.00 0.03 0.00 96 1005.9
20260506183118 55 216 0.0 0.9 0.00 0.03 0.00 96 1006.2
20260506181602 55 236 0.0 0.0 0.00 0.03 0.00 96 1006.4
20260506180114 55 115 0.0 0.0 0.00 0.04 0.00 96 1007.0
20260506174555 55 273 0.0 0.9 0.00 0.04 0.00 95 1007.1
20260506173124 55 287 0.0 0.0 0.00 0.04 0.00 94 1006.9